St. Joseph, KS

7:37 AM CST on November 17, 2019 (GMT -0600)
Rosecrans Memorial

Weather History for KSTJ - September, 2019

Change the Weather History Date:

Sunday, September 8, 2019

  Actual Average Record
Temperature  
Mean Temperature 74 °F 70 °F  
Max Temperature 82 °F 82 °F 100 °F (1947)
Min Temperature 65 °F 57 °F 44 °F (1956)
Degree Days  
Heating Degree Days 0 1  
Month to date heating degree days 0 6  
Since 1 July heating degree days 0 11  
Cooling Degree Days 9 5  
Month to date cooling degree days 77 50  
Year to date cooling degree days 1221 1127  
Growing Degree Days 24 (Base 50)    
Moisture  
Dew Point 67 °F    
Average Humidity 81    
Maximum Humidity 93    
Minimum Humidity 69    
Precipitation  
Precipitation 0.02 in 0.13 in 1.09 in (1920)
Month to date precipitation 1.47 1.16  
Year to date precipitation 30.74 27.46  
Sea Level Pressure  
Sea Level Pressure 29.94 in    
Wind  
Wind Speed 7 mph (East)    
Max Wind Speed 17 mph    
Max Gust Speed 24 mph    
Visibility 9 miles    
Events Rain , Thunderstorm    
T = Trace of Precipitation, MM = Missing Value Source: NWS Daily Summary

Daily Weather History Graph

Daily Weather History Graph

Search for Another Location

Airport or City:

Astronomy

Sep. 08, 2019 Rise Set
Actual Time 6:54 AM CDT 7:39 PM CDT
Civil Twilight 6:26 AM CDT 8:07 PM CDT
Nautical Twilight 5:54 AM CDT 8:39 PM CDT
Astronomical Twilight 5:20 AM CDT 9:12 PM CDT
Moon 4:48 PM CDT (9/8) 1:35 AM CDT (9/8)
Length of Visible Light 13h 40m
Length of Day
12h 45m
Waxing Gibbous, 75% of the Moon is Illuminated
Sep 8
Waxing Gibbous
Sep 13
Full
Sep 21
Last Quarter
Sep 28
New
Oct 5
First Quarter

Hourly Weather History & Observations

Time (CDT) Temp. Heat Index Dew Point Humidity Pressure Visibility Wind Dir Wind Speed Gust Speed Precip Events Conditions
12:26 AM 68.0 °F - 64.9 °F 90% 30.03 in 1.5 mi NNW 23.0 mph 34.5 mph 0.20 in Rain , Thunderstorm Heavy Thunderstorms and Rain
12:30 AM 66.9 °F - 64.9 °F 93% 30.02 in 0.8 mi North 17.3 mph 34.5 mph 0.41 in Rain , Thunderstorm Heavy Thunderstorms and Rain
12:40 AM 66.0 °F - 64.9 °F 96% 30.00 in 0.8 mi North 18.4 mph 25.3 mph 0.74 in Rain , Thunderstorm Heavy Thunderstorms and Rain
12:51 AM 66.2 °F - 64.4 °F 94% 30.00 in 1.0 mi NNE 9.2 mph - 1.19 in Rain , Thunderstorm Heavy Thunderstorms and Rain
12:53 AM 66.0 °F - 64.9 °F 96% 29.99 in 1.0 mi NE 5.8 mph - 1.23 in Rain , Thunderstorm Heavy Thunderstorms and Rain
1:05 AM 66.0 °F - 64.9 °F 96% 29.96 in 3.0 mi NE 9.2 mph - 0.12 in Rain , Thunderstorm Light Thunderstorms and Rain
1:15 AM 66.0 °F - 64.9 °F 96% 29.95 in 10.0 mi East 10.4 mph - 0.12 in Rain , Thunderstorm Light Rain
1:23 AM 66.9 °F - 64.9 °F 93% 29.96 in 10.0 mi East 13.8 mph 19.6 mph 0.13 in Rain Light Rain
1:30 AM 66.9 °F - 64.9 °F 93% 29.94 in 10.0 mi East 11.5 mph 20.7 mph 0.13 in Rain Light Rain
1:53 AM 66.9 °F - 64.0 °F 90% 29.92 in 10.0 mi East 12.7 mph 24.2 mph 0.13 in   Partly Cloudy
2:53 AM 66.9 °F - 63.0 °F 87% 29.90 in 10.0 mi ESE 5.8 mph - 0.00 in   Mostly Cloudy
3:53 AM 66.0 °F - 63.0 °F 90% 29.91 in 10.0 mi SE 6.9 mph - 0.01 in   Mostly Cloudy
4:53 AM 66.0 °F - 62.1 °F 87% 29.90 in 10.0 mi ESE 10.4 mph - N/A   Mostly Cloudy
5:53 AM 66.0 °F - 62.1 °F 87% 29.90 in 10.0 mi SE 5.8 mph - N/A   Clear
6:53 AM 66.0 °F - 63.0 °F 90% 29.94 in 10.0 mi SE 5.8 mph - N/A   Overcast
7:53 AM 66.9 °F - 63.0 °F 87% 29.95 in 10.0 mi SE 6.9 mph - N/A   Overcast
8:39 AM 66.9 °F - 64.0 °F 90% 29.96 in 10.0 mi SE 4.6 mph - N/A   Mostly Cloudy
8:53 AM 68.0 °F - 64.0 °F 87% 29.95 in 10.0 mi ESE 4.6 mph - N/A   Overcast
9:02 AM 68.0 °F - 64.0 °F 87% 29.97 in 10.0 mi ESE 3.5 mph - N/A   Overcast
9:53 AM 70.0 °F - 64.9 °F 84% 29.95 in 10.0 mi East 4.6 mph - N/A   Overcast
10:15 AM 72.0 °F - 66.9 °F 84% 29.97 in 10.0 mi NE 5.8 mph - N/A   Overcast
10:53 AM 72.0 °F - 66.9 °F 84% 29.95 in 10.0 mi East 5.8 mph - N/A   Mostly Cloudy
11:53 AM 73.9 °F - 66.9 °F 79% 29.95 in 10.0 mi Variable 3.5 mph - N/A   Partly Cloudy
12:53 PM 78.1 °F - 69.1 °F 74% 29.93 in 10.0 mi East 6.9 mph - N/A   Clear
1:53 PM 81.0 °F 84.4 °F 70.0 °F 69% 29.92 in 10.0 mi SE 8.1 mph - N/A   Partly Cloudy
2:53 PM 80.1 °F 82.9 °F 69.1 °F 69% 29.90 in 10.0 mi SE 6.9 mph - N/A   Clear
3:53 PM 81.0 °F 84.9 °F 71.1 °F 72% 29.90 in 10.0 mi SSE 9.2 mph - N/A   Partly Cloudy
4:53 PM 82.0 °F 86.3 °F 71.1 °F 69% 29.90 in 10.0 mi ESE 5.8 mph - N/A   Clear
5:53 PM 81.0 °F 84.9 °F 71.1 °F 72% 29.90 in 10.0 mi East 6.9 mph - N/A   Clear
6:53 PM 80.1 °F 83.6 °F 71.1 °F 74% 29.90 in 10.0 mi East 5.8 mph - N/A   Clear
7:53 PM 78.1 °F - 70.0 °F 76% 29.91 in 10.0 mi East 9.2 mph - N/A   Clear
8:53 PM 75.9 °F - 70.0 °F 82% 29.93 in 10.0 mi East 10.4 mph - N/A   Scattered Clouds
9:14 PM 75.9 °F - 70.0 °F 82% 29.95 in 10.0 mi East 6.9 mph - N/A   Mostly Cloudy
9:53 PM 75.0 °F - 71.1 °F 87% 29.94 in 10.0 mi East 9.2 mph - N/A   Mostly Cloudy
10:35 PM 75.0 °F - 71.1 °F 87% 29.96 in 10.0 mi ESE 9.2 mph - N/A   Scattered Clouds
10:53 PM 75.0 °F - 71.1 °F 87% 29.94 in 10.0 mi ESE 9.2 mph - N/A   Clear
11:53 PM 75.0 °F - 70.0 °F 84% 29.94 in 10.0 mi ESE 10.4 mph 20.7 mph N/A   Clear